Date String (YYYY-MM-DD hh:mm:ss) UTC,Instrument flags,absolute air pressure of the measurement (hPa),sample flow rate (lpm),inlet stack bypass flow (lpm),air temperature of the measurement (°C),ambient temperature measured by the external sensor (°C),aerosol sample conditioner tube jacket temperature (°C),OPC LED temperature (°C),internal box temperature (°C),relative humidity of the measurement (%),span deviation,mass concentration of particles derived from Lorenz-Mie calculation of OPC scattering (μg/m³),mass concentration of particles derived from Lorenz-Mie calculation of OPC scattering (μg/m³),mass concentration of particles derived from Lorenz-Mie calculation of OPC scattering (μg/m³)
DateTimeUTC,F1_M11,P_M11,Q1_M11,Q2_M11,T1_M11,T2_M11,T3_M11,T4_M11,T5_M11,U1_M11,ZSPAN_M11,X0_M11,X2_M11,X1_M11
2024-03-30 16:00:00,SystemResetWarning,0823.8,4.99,000.00,020.5,020.0,000.0,028.9,022.3,28.4,-000.9,0013.33,0009.06,0008.59
2024-03-30 16:01:00,SystemResetWarning,0823.7,5.00,000.00,020.5,020.0,000.0,028.9,022.4,28.9,-000.2,0012.63,0008.94,0008.46
2024-03-30 16:02:00,SystemResetWarning,0823.7,5.00,000.00,020.6,020.0,000.0,029.0,022.4,28.8,0000.2,0012.69,0008.74,0008.31
2024-03-30 16:03:00,SystemResetWarning,0823.7,5.00,000.00,020.6,020.0,000.0,029.0,022.4,28.0,0000.4,0012.51,0008.63,0008.19
2024-03-30 16:04:00,SystemResetWarning,0823.7,5.00,000.00,020.6,020.1,000.0,029.0,022.4,28.2,0000.2,0012.31,0008.51,0008.06
2024-03-30 16:05:00,SystemResetWarning,0823.7,5.01,000.00,020.6,020.1,000.0,029.0,022.4,28.4,0000.4,0012.18,0008.37,0007.90
2024-03-30 16:06:00,SystemResetWarning,0823.7,5.01,000.00,020.6,020.1,000.0,029.0,022.4,28.5,0000.2,0012.00,0008.24,0007.77
2024-03-30 16:07:00,SystemResetWarning,0823.7,5.00,000.00,020.6,020.1,000.0,029.0,022.4,28.9,-000.1,0011.68,0008.15,0007.70
2024-03-30 16:08:00,SystemResetWarning,0823.7,5.00,000.00,020.6,020.1,000.0,029.0,022.4,28.4,-000.7,0010.99,0008.11,0007.67
2024-03-30 16:09:00,SystemResetWarning,0823.8,4.99,000.00,020.6,020.1,000.0,029.0,022.4,28.0,-000.9,0010.99,0008.15,0007.71
2024-03-30 16:10:00,SystemResetWarning,0823.8,5.00,000.00,020.6,020.1,000.0,029.0,022.4,28.4,-001.0,0011.63,0008.24,0007.75
2024-03-30 16:11:00,SystemResetWarning,0823.8,5.00,000.00,020.6,020.1,000.0,029.0,022.4,28.0,-000.9,0011.75,0008.33,0007.84
2024-03-30 16:12:00,SystemResetWarning,0823.8,5.01,000.00,020.6,020.1,000.0,029.0,022.5,27.8,-001.0,0012.47,0008.48,0008.00
2024-03-30 16:13:00,SystemResetWarning,0823.7,5.01,000.00,020.6,020.1,000.0,029.0,022.5,27.5,-001.5,0013.44,0008.70,0008.19
2024-03-30 16:14:00,SystemResetWarning,0823.6,5.00,000.00,020.6,020.1,000.0,029.1,022.5,27.2,-001.5,0013.80,0008.89,0008.37
2024-03-30 16:15:00,SystemResetWarning,0823.7,5.00,000.00,020.7,020.1,000.0,029.1,022.5,27.1,-001.4,0014.67,0009.04,0008.52
2024-03-30 16:16:00,SystemResetWarning,0823.7,5.00,000.00,020.7,020.1,000.0,029.1,022.5,27.8,-001.4,0014.84,0009.20,0008.71
2024-03-30 16:17:00,SystemResetWarning,0823.7,4.99,000.00,020.7,020.2,000.0,029.1,022.5,27.9,-001.5,0014.99,0009.36,0008.87
2024-03-30 16:18:00,SystemResetWarning,0823.7,5.00,000.00,020.7,020.2,000.0,029.1,022.5,28.3,-001.0,0015.08,0009.44,0008.94
2024-03-30 16:19:00,SystemResetWarning,0823.7,5.01,000.00,020.7,020.2,000.0,029.1,022.5,28.3,-000.5,0015.34,0009.46,0008.96
2024-03-30 16:20:00,SystemResetWarning,0823.7,5.00,000.00,020.7,020.2,000.0,029.1,022.5,28.6,-000.4,0015.78,0009.44,0008.90
2024-03-30 16:21:00,SystemResetWarning,0823.6,4.99,000.00,020.7,020.2,000.0,029.1,022.5,28.7,-000.6,0015.82,0009.30,0008.77
2024-03-30 16:22:00,SystemResetWarning,0823.6,4.99,000.00,020.7,020.2,000.0,029.1,022.5,28.2,-000.5,0015.62,0009.19,0008.64
2024-03-30 16:23:00,SystemResetWarning,0823.5,5.00,000.00,020.7,020.2,000.0,029.1,022.5,28.5,-000.4,0014.97,0009.03,0008.47
2024-03-30 16:24:00,SystemResetWarning,0823.5,5.00,000.00,020.7,020.2,000.0,029.1,022.6,28.3,0000.3,0013.85,0008.86,0008.29
2024-03-30 16:25:00,SystemResetWarning,0823.5,5.01,000.00,020.7,020.2,000.0,029.1,022.6,28.1,0000.5,0013.52,0008.67,0008.10
2024-03-30 16:26:00,SystemResetWarning,0823.5,5.00,000.00,020.8,020.3,000.0,029.1,022.6,28.0,0000.4,0012.99,0008.56,0007.96
2024-03-30 16:27:00,SystemResetWarning,0823.4,5.01,000.00,020.8,020.3,000.0,029.1,022.6,28.0,0000.3,0012.96,0008.44,0007.84
2024-03-30 16:28:00,SystemResetWarning,0823.5,5.00,000.00,020.8,020.3,000.0,029.2,022.6,28.0,0000.5,0012.85,0008.32,0007.72
2024-03-30 16:29:00,SystemResetWarning,0823.5,5.01,000.00,020.8,020.3,000.0,029.2,022.6,27.3,0000.1,0013.00,0008.27,0007.69
2024-03-30 16:30:00,SystemResetWarning,0823.5,5.00,000.00,020.8,020.3,000.0,029.2,022.6,27.1,-000.4,0013.53,0008.26,0007.68
2024-03-30 16:31:00,SystemResetWarning,0823.5,5.00,000.00,020.8,020.3,000.0,029.2,022.6,27.1,-000.7,0013.23,0008.24,0007.67
2024-03-30 16:32:00,SystemResetWarning,0823.5,5.00,000.00,020.8,020.3,000.0,029.2,022.7,27.8,-000.3,0013.67,0008.25,0007.69
2024-03-30 16:33:00,SystemResetWarning,0823.5,5.00,000.00,020.8,020.3,000.0,029.2,022.7,27.0,-000.2,0014.43,0008.25,0007.71
2024-03-30 16:34:00,SystemResetWarning,0823.5,5.00,000.00,020.9,020.4,000.0,029.2,022.7,26.7,-000.4,0014.37,0008.25,0007.74
2024-03-30 16:35:00,SystemResetWarning,0823.5,5.00,000.00,020.9,020.4,000.0,029.2,022.7,26.8,-000.7,0014.32,0008.26,0007.77
2024-03-30 16:36:00,SystemResetWarning,0823.5,5.00,000.00,020.9,020.4,000.0,029.2,022.7,27.9,-000.8,0014.40,0008.27,0007.76
2024-03-30 16:37:00,SystemResetWarning,0823.5,5.00,000.00,020.9,020.4,000.0,029.2,022.7,27.7,-001.1,0014.20,0008.26,0007.74
2024-03-30 16:38:00,SystemResetWarning,0823.4,5.02,000.00,020.9,020.4,000.0,029.3,022.7,27.3,-000.9,0013.96,0008.21,0007.70
2024-03-30 16:39:00,SystemResetWarning,0823.4,5.00,000.00,020.9,020.4,000.0,029.3,022.7,27.1,-001.0,0014.13,0008.20,0007.67
2024-03-30 16:40:00,SystemResetWarning,0823.5,5.00,000.00,020.9,020.4,000.0,029.3,022.7,26.8,-001.3,0014.24,0008.17,0007.66
2024-03-30 16:41:00,SystemResetWarning,0823.4,5.00,000.00,020.9,020.4,000.0,029.3,022.8,27.3,-001.1,0013.43,0008.14,0007.64
2024-03-30 16:42:00,SystemResetWarning,0823.5,5.00,000.00,020.9,020.4,000.0,029.3,022.8,27.2,-001.2,0013.66,0008.10,0007.62
2024-03-30 16:43:00,SystemResetWarning,0823.5,5.00,000.00,020.9,020.5,000.0,029.3,022.8,27.8,-001.4,0012.97,0008.04,0007.57
2024-03-30 16:44:00,SystemResetWarning,0823.5,5.01,000.00,021.0,020.5,000.0,029.3,022.8,28.3,-001.6,0012.27,0007.95,0007.49
2024-03-30 16:45:00,SystemResetWarning,0823.5,5.00,000.00,021.0,020.5,000.0,029.3,022.8,28.2,-001.6,0012.72,0007.88,0007.40
2024-03-30 16:46:00,SystemResetWarning,0823.5,5.00,000.00,021.0,020.5,000.0,029.3,022.8,28.0,-001.6,0012.77,0007.82,0007.32
2024-03-30 16:47:00,SystemResetWarning,0823.4,5.00,000.00,021.0,020.5,000.0,029.3,022.8,28.4,-001.7,0012.63,0007.73,0007.26
2024-03-30 16:48:00,SystemResetWarning,0823.4,5.00,000.00,021.0,020.5,000.0,029.4,022.8,29.0,-001.4,0012.75,0007.65,0007.21
2024-03-30 16:49:00,SystemResetWarning,0823.4,5.00,000.00,021.0,020.5,000.0,029.4,022.8,28.5,-001.8,0012.87,0007.58,0007.15
2024-03-30 16:50:00,SystemResetWarning,0823.4,5.00,000.00,021.0,020.5,000.0,029.4,022.9,29.0,-001.6,0012.97,0007.49,0007.09
2024-03-30 16:51:00,SystemResetWarning,0823.4,5.00,000.00,021.0,020.6,000.0,029.4,022.9,28.2,-001.5,0012.83,0007.41,0007.00
2024-03-30 16:52:00,SystemResetWarning,0823.4,5.00,000.00,021.1,020.6,000.0,029.4,022.9,27.4,-001.2,0012.84,0007.35,0006.94
2024-03-30 16:53:00,SystemResetWarning,0823.4,5.00,000.00,021.1,020.6,000.0,029.4,022.9,27.2,-000.9,0012.44,0007.32,0006.88
2024-03-30 16:54:00,SystemResetWarning,0823.4,5.00,000.00,021.1,020.6,000.0,029.4,022.9,27.5,-001.2,0012.64,0007.34,0006.88
2024-03-30 16:55:00,SystemResetWarning,0823.4,5.00,000.00,021.1,020.6,000.0,029.4,022.9,27.4,-001.1,0012.49,0007.35,0006.91
2024-03-30 16:56:00,SystemResetWarning,0823.4,4.99,000.00,021.1,020.6,000.0,029.4,023.0,27.1,-000.9,0011.91,0007.37,0006.95
2024-03-30 16:57:00,SystemResetWarning,0823.5,4.99,000.00,021.1,020.7,000.0,029.5,023.0,26.5,-001.1,0012.38,0007.33,0006.96
2024-03-30 16:58:00,SystemResetWarning,0823.4,4.99,000.00,021.1,020.7,000.0,029.5,023.0,26.4,-001.5,0012.60,0007.36,0006.99
2024-03-30 16:59:00,SystemResetWarning,0823.4,5.01,000.00,021.2,020.7,000.0,029.5,023.0,26.2,-001.3,0012.57,0007.41,0007.02
